• In Uzbekistan
  • List of Countries
  • For 7 days
  • Water Temperature
  • Satellite Maps
  • Weather Map
  • Weather Widgets
  • user-avatar
    Login

    Hourly Weather Stepanakert

    Today, 20 January, Sunday

    Time Temperature Precipitation Wind Pressure Humidity
    00:00 +2°C° 0 mm 1 mps 694 mmHg 46%
    01:00 +2°C° 0 mm 1 mps 694 mmHg 45%
    02:00 +2°C° 0 mm 1 mps 695 mmHg 43%
    03:00 +1°C° 0 mm 2 mps 695 mmHg 42%
    04:00 -1°C° 0 mm 2 mps 695 mmHg 41%
    05:00 +1°C° 0 mm 1 mps 695 mmHg 40%
    06:00 +1°C° 0 mm 1 mps 695 mmHg 40%
    07:00 +2°C° 0 mm 1 mps 695 mmHg 39%
    08:00 +3°C° 0 mm 1 mps 696 mmHg 38%
    09:00 +5°C° 0 mm 1 mps 696 mmHg 35%
    10:00 +5°C° 0 mm 1 mps 696 mmHg 35%
    11:00 +6°C° 0 mm 1 mps 696 mmHg 35%
    12:00 +7°C° 0 mm 1 mps 696 mmHg 34%
    13:00 +7°C° 0 mm 1 mps 696 mmHg 37%
    14:00 +7°C° 0 mm 1 mps 696 mmHg 39%
    15:00 +7°C° 0 mm 1 mps 696 mmHg 41%
    16:00 +5°C° 0 mm 1 mps 696 mmHg 46%
    17:00 +4°C° 0 mm 1 mps 696 mmHg 51%
    18:00 +1°C° 0 mm 0 mps 696 mmHg 57%
    19:00 +2°C° 0 mm 1 mps 696 mmHg 56%
    20:00 +2°C° 0 mm 1 mps 696 mmHg 55%
    21:00 +2°C° 0 mm 1 mps 696 mmHg 54%
    22:00 +2°C° 0 mm 1 mps 696 mmHg 53%
    23:00 +2°C° 0 mm 1 mps 696 mmHg 53%

    Tomorrow, 21 January, Monday

    Time Temperature Precipitation Wind Pressure Humidity
    00:00 +2°C° 0 mm 1 mps 697 mmHg 52%
    01:00 +1°C° 0 mm 1 mps 696 mmHg 52%
    02:00 +1°C° 0 mm 1 mps 696 mmHg 51%
    03:00 +1°C° 0 mm 1 mps 696 mmHg 51%
    04:00 +1°C° 0 mm 1 mps 696 mmHg 50%
    05:00 +1°C° 0 mm 1 mps 696 mmHg 50%
    06:00 0°C° 0 mm 1 mps 696 mmHg 49%
    07:00 +1°C° 0 mm 1 mps 696 mmHg 47%
    08:00 +2°C° 0 mm 1 mps 696 mmHg 44%
    09:00 +2°C° 0 mm 0 mps 697 mmHg 41%
    10:00 +4°C° 0 mm 1 mps 696 mmHg 41%
    11:00 +5°C° 0 mm 1 mps 696 mmHg 40%
    12:00 +5°C° 0 mm 2 mps 695 mmHg 39%
    13:00 +5°C° 0 mm 2 mps 695 mmHg 40%
    14:00 +5°C° 0 mm 2 mps 694 mmHg 42%
    15:00 +5°C° 0 mm 2 mps 694 mmHg 43%
    16:00 +5°C° 0 mm 1 mps 693 mmHg 49%
    17:00 +3°C° 0 mm 1 mps 693 mmHg 54%
    18:00 +1°C° 0 mm 0 mps 693 mmHg 60%
    19:00 +2°C° 0 mm 1 mps 693 mmHg 58%
    20:00 +2°C° 0 mm 1 mps 693 mmHg 56%
    21:00 +2°C° 0 mm 1 mps 693 mmHg 54%
    22:00 +2°C° 0 mm 1 mps 692 mmHg 51%
    23:00 +2°C° 0 mm 1 mps 692 mmHg 49%

    Day after tomorrow, 22 January, Tuesday

    Time Temperature Precipitation Wind Pressure Humidity
    00:00 +2°C° 0 mm 1 mps 692 mmHg 46%
    01:00 +2°C° 0 mm 1 mps 692 mmHg 45%
    02:00 +1°C° 0 mm 2 mps 692 mmHg 44%
    03:00 +1°C° 0 mm 2 mps 692 mmHg 42%
    04:00 +1°C° 0 mm 2 mps 692 mmHg 42%
    05:00 +1°C° 0 mm 2 mps 691 mmHg 41%
    06:00 +1°C° 0 mm 2 mps 691 mmHg 41%
    07:00 +2°C° 0 mm 2 mps 691 mmHg 39%
    08:00 +4°C° 0 mm 1 mps 692 mmHg 38%
    09:00 +5°C° 0 mm 1 mps 692 mmHg 36%
    10:00 +6°C° 0 mm 1 mps 692 mmHg 34%
    11:00 +7°C° 0 mm 1 mps 692 mmHg 31%
    12:00 +8°C° 0 mm 1 mps 692 mmHg 29%
    13:00 +8°C° 0 mm 1 mps 691 mmHg 30%
    14:00 +9°C° 0 mm 1 mps 691 mmHg 31%
    15:00 +9°C° 0 mm 1 mps 691 mmHg 33%
    16:00 +7°C° 0 mm 1 mps 691 mmHg 37%
    17:00 +6°C° 0 mm 1 mps 692 mmHg 41%
    18:00 +4°C° 0 mm 0 mps 692 mmHg 45%
    19:00 +4°C° 0 mm 0 mps 692 mmHg 46%
    20:00 +4°C° 0 mm 1 mps 693 mmHg 47%
    21:00 +4°C° 0 mm 1 mps 693 mmHg 47%
    22:00 +4°C° 0 mm 1 mps 693 mmHg 48%
    23:00 +3°C° 0 mm 1 mps 693 mmHg 48%

    23 January, Wednesday

    Time Temperature Precipitation Wind Pressure Humidity
    00:00 +3°C° 0 mm 1 mps 693 mmHg 49%
    01:00 +3°C° 0 mm 1 mps 693 mmHg 49%
    02:00 +2°C° 0 mm 1 mps 693 mmHg 50%
    03:00 +2°C° 0 mm 1 mps 693 mmHg 51%
    04:00 +2°C° 0 mm 1 mps 693 mmHg 51%
    05:00 +2°C° 0 mm 1 mps 693 mmHg 51%
    06:00 +1°C° 0 mm 1 mps 693 mmHg 51%
    07:00 +2°C° 0 mm 1 mps 694 mmHg 49%
    08:00 +3°C° 0 mm 1 mps 694 mmHg 46%
    09:00 +3°C° 0 mm 0 mps 695 mmHg 43%
    10:00 +4°C° 0 mm 1 mps 695 mmHg 43%
    11:00 +4°C° 0 mm 2 mps 694 mmHg 43%
    12:00 +5°C° 0 mm 2 mps 694 mmHg 43%
    13:00 +4°C° 0 mm 2 mps 694 mmHg 47%
    14:00 +4°C° 0 mm 2 mps 694 mmHg 51%
    15:00 +4°C° 0 mm 2 mps 694 mmHg 54%
    16:00 +3°C° 0 mm 2 mps 694 mmHg 65%
    17:00 +3°C° 0 mm 1 mps 694 mmHg 76%
    18:00 +2°C° 0 mm 1 mps 695 mmHg 87%
    19:00 +2°C° 0 mm 1 mps 695 mmHg 88%
    20:00 +2°C° 0 mm 1 mps 695 mmHg 89%
    21:00 +2°C° 0 mm 1 mps 696 mmHg 90%
    22:00 +2°C° 0 mm 1 mps 696 mmHg 90%
    23:00 +2°C° 0 mm 1 mps 696 mmHg 90%

    24 January, Thursday

    Time Temperature Precipitation Wind Pressure Humidity
    00:00 +2°C° 0 mm 1 mps 696 mmHg 90%
    01:00 +2°C° 0 mm 1 mps 696 mmHg 90%
    02:00 +2°C° 0 mm 1 mps 696 mmHg 90%
    03:00 +2°C° 0 mm 1 mps 696 mmHg 90%
    04:00 +1°C° 0 mm 1 mps 696 mmHg 90%
    05:00 +1°C° 0 mm 1 mps 696 mmHg 89%
    06:00 +1°C° 0 mm 1 mps 696 mmHg 89%
    07:00 +2°C° 0 mm 1 mps 696 mmHg 86%
    08:00 +2°C° 0 mm 1 mps 696 mmHg 83%
    09:00 +3°C° 0 mm 1 mps 697 mmHg 80%
    10:00 +4°C° 0 mm 1 mps 696 mmHg 76%
    11:00 +4°C° 0 mm 2 mps 696 mmHg 72%
    12:00 +5°C° 0 mm 2 mps 696 mmHg 67%
    13:00 +5°C° 0 mm 2 mps 696 mmHg 68%
    14:00 +5°C° 0 mm 2 mps 695 mmHg 68%
    15:00 +5°C° 0 mm 2 mps 695 mmHg 69%
    16:00 +5°C° 0 mm 1 mps 695 mmHg 75%
    17:00 +4°C° 0 mm 1 mps 695 mmHg 81%
    18:00 +3°C° 0 mm 1 mps 695 mmHg 88%
    19:00 +3°C° 0 mm 1 mps 695 mmHg 86%
    20:00 +3°C° 0 mm 1 mps 695 mmHg 84%
    21:00 +3°C° 0 mm 1 mps 695 mmHg 83%
    22:00 +3°C° 0 mm 1 mps 695 mmHg 82%
    23:00 +1°C° 0 mm 0 mps 695 mmHg 81%

    25 January, Friday

    Time Temperature Precipitation Wind Pressure Humidity
    00:00 +1°C° 0 mm 0 mps 695 mmHg 80%
    01:00 +1°C° 0 mm 0 mps 694 mmHg 80%
    02:00 +1°C° 0 mm 0 mps 694 mmHg 79%
    03:00 +1°C° 0 mm 0 mps 694 mmHg 79%
    04:00 +1°C° 0 mm 0 mps 694 mmHg 76%
    05:00 +1°C° 0 mm 0 mps 694 mmHg 73%
    06:00 +3°C° 0 mm 1 mps 693 mmHg 70%
    07:00 +3°C° 0 mm 1 mps 693 mmHg 67%
    08:00 +4°C° 0 mm 1 mps 694 mmHg 63%
    09:00 +5°C° 0 mm 1 mps 694 mmHg 60%
    10:00 +6°C° 0 mm 1 mps 693 mmHg 56%
    11:00 +7°C° 0 mm 1 mps 693 mmHg 53%
    12:00 +8°C° 0 mm 2 mps 692 mmHg 49%
    13:00 +8°C° 0 mm 2 mps 692 mmHg 48%
    14:00 +8°C° 0 mm 2 mps 691 mmHg 48%
    15:00 +8°C° 0 mm 2 mps 691 mmHg 48%
    16:00 +7°C° 0 mm 2 mps 690 mmHg 52%
    17:00 +7°C° 0 mm 1 mps 690 mmHg 57%
    18:00 +6°C° 0 mm 1 mps 690 mmHg 62%
    19:00 +6°C° 0 mm 1 mps 690 mmHg 61%
    20:00 +6°C° 0 mm 1 mps 690 mmHg 60%
    21:00 +5°C° 0 mm 1 mps 690 mmHg 59%
    22:00 +4°C° 0 mm 2 mps 689 mmHg 58%
    23:00 +4°C° 0 mm 2 mps 689 mmHg 58%
    Show more